Regional Weather Roundup
Issued by NWS

Home | Current Version | Previous Version | Graphics & Text | Print | Product List | Glossary On
Versions: 1 2 3 4 5 6 7 8 9 10 11 12 13 14 15 16 17 18 19 20 21 22 23 24 25 26 27 28 29 30 31 32 33 34 35 36 37 38 39 40 41 42 43 44 45 46 47 48 49 50
000
ASUS45 KBOU 181307
RWRCO

WEATHER ROUNDUP FOR COLORADO
NATIONAL WEATHER SERVICE DENVER/BOULDER CO
700 AM MDT SAT APR 18 2015

NOTE: "FAIR" INDICATES FEW OR NO CLOUDS BELOW 12000 FEET WITH NO
SIGNIFICANT WEATHER AND/OR OBSTRUCTIONS TO VISIBILITY.

COZ001>005-013-030-031-181400-
...NORTHWEST COLORADO...

CITY           SKY/WX    TMP DP  RH WIND       PRES   REMARKS
CRAIG          CLOUDY    34  30  85 W9        30.00F WCI  27
HAYDEN         CLOUDY    30  28  93 W9        29.99S WCI  22
MEEKER         CLOUDY    36  30  79 MISG      30.00F
MOUNT WERNER   NOT AVBL
STEAMBOAT SPGS CLOUDY    31  30  93 SW5       29.97F WCI  27
WALDEN         CLOUDY    28  27  93 N9        29.97R VSB 1   WCI  20
$$

COZ006>008-011-181400-
...WEST CENTRAL VALLEYS...

CITY           SKY/WX    TMP DP  RH WIND       PRES   REMARKS
GRAND JUNCTION FOG       33  33 100 E3        30.04F VSB 1/4
MONTROSE       CLOUDY    33  31  92 SE10      30.07S WCI  25
EAGLE          CLOUDY    30  28  93 CALM      30.03F
RIFLE          FLURRIES  35  31  85 CALM      30.03F
DELTA          CLOUDY    37  35  93 S3        30.07S
NUCLA          CLOUDY    34  32  93 CALM      30.09R
$$

COZ017>023-064>068-181400-
...SOUTHWEST COLORADO...

CITY           SKY/WX    TMP DP  RH WIND       PRES   REMARKS
DURANGO        MOCLDY    30  28  92 VRB3      30.02S
CORTEZ         PTCLDY    31  30  96 NE5       30.03F WCI  26
PAGOSA SPRINGS MOCLDY    20  17  88 CALM      30.02R
TELLURIDE      NOT AVBL
WOLF CREEK PAS PTCLDY    12  10  92 NE9       30.01S WCI   0
$$

COZ009-010-012-014-032>034-037-058>063-181400-
...CENTRAL COLORADO...

CITY           SKY/WX    TMP DP  RH WIND       PRES   REMARKS
ASPEN          LGT SNOW  23  21  92 VRB3      30.00S FOG
BUENA VISTA    CLOUDY    17  13  84 CALM      29.99S
COPPER MTN     CLOUDY    19  14  79 SW3       29.96S
BERTHOUD PASS  HVY SNOW  12   5  73 MISG      29.97S VSB<1/4
COTTONWOOD PAS CLOUDY    27  18  69 N3        29.96F
GUNNISON       MOCLDY    23  18  80 NE3       30.06S
KREMMLING      SNOW      30  28  93 CALM      29.99F VSB 1/2
LEADVILLE      LGT SNOW  17  15  92 N6        29.96S VSB 1   WCI   9
MONARCH PASS     N/A     12   9  85 MISG      30.06S
SALIDA         MOCLDY    20  15  84 N3        30.07S
SUNLIGHT       SNOW      23  21  93 W3        30.04S VSB<1/4
WILKERSON PASS SNOW      18  16  93 SW3       29.97S VSB 1/4
$$

COZ069>075-181400-
...SAN LUIS VALLEY/SANGRE DE CRISTO MOUNTAINS...

CITY           SKY/WX    TMP DP  RH WIND       PRES   REMARKS
ALAMOSA        CLEAR     22  16  78 N6        29.99R WCI  14
LA VETA PASS   PTCLDY    19  14  79 S3        29.95S
SAGUACHE       PTCLDY    21  16  79 NW13      30.01R WCI   9
$$

COZ035-036-038>040-181400-
...NORTHERN COLORADO FRONT RANGE...

CITY           SKY/WX    TMP DP  RH WIND       PRES   REMARKS
DENVER INTL AP CLOUDY    38  36  92 CALM      29.95F
DMNS CITY PARK   N/A     40  34  80 NW2       29.94F
AURORA         LGT RAIN  37  37  99 CALM      29.95F
FRONT RANGE AP NOT AVBL
ERIE MUNI ARPT CLOUDY    40  37  91 CALM      29.96S
BOULDER MUN AP DRIZZLE   39  36  87 CALM      29.95S
CENTENNIAL     CLOUDY    37  35  92 NW3       29.94F
BROOMFIELD     CLOUDY    37  36  93 CALM      29.96S
FORT COLLINS   CLOUDY    39  34  81 CALM      29.97R
LONGMONT       CLOUDY    41  37  84 CALM      29.98R
$$

COZ041-046-047-076>085-087-088-181400-
...PIKES PEAK/PALMER DIVIDE AND SOUTHERN FOOTHILLS...

CITY           SKY/WX    TMP DP  RH WIND       PRES   REMARKS
COLO. SPRINGS  MOCLDY    35  30  82 W5        29.94F WCI  31
A. F. ACADEMY  MOCLDY    32  32 100 N6        29.94S WCI  26
ELLICOTT       LGT RAIN N/A N/A N/A NW6       29.93S
FALCON         MOCLDY    32  31  94 N6        29.95S WCI  26
FORT CARSON    CLOUDY    36  32  87 NW3       29.94R
LIMON          CLOUDY    37  36  96 NW10      29.93S FOG
MONUMENT HILL  CLOUDY    30  28  93 W5        29.94S WCI  25
TRINIDAD       PTCLDY    31  25  78 W8        29.95S WCI  23
$$

COZ042>045-048>051-090-091-181400-
...NORTHEAST COLORADO...

CITY           SKY/WX    TMP DP  RH WIND       PRES   REMARKS
GREELEY ARPT   CLOUDY    36  28  75 CALM      29.97R
AKRON          MOCLDY    38  38 100 NW8       29.92S FOG
BURLINGTON     CLOUDY    43  41  93 N13       29.90F FOG
WRAY           CLOUDY   N/A N/A N/A N3        29.92R FOG
STERLING       PTCLDY    39  37  93 NW7       29.92F
HOLYOKE        CLOUDY    45  43  93 N7        29.91S
FORT MORGAN    CLOUDY    38  37  94 W7        29.94F
$$

COZ086-089-092>099-181400-
...SOUTHEAST COLORADO...

CITY           SKY/WX    TMP DP  RH WIND       PRES   REMARKS
PUEBLO         PTCLDY    37  34  89 SW6       29.94S
LA JUNTA       CLEAR     40  35  83 W6        29.92S
LAMAR          PTCLDY    39  36  89 NW3       29.90S
SPRINGFIELD      N/A     39  36  89 NW12      29.90S
$$


USA.gov is the U.S. government's official web portal to all federal, state and local government web resources and services.